sat.trackr.live / text

‹ back to catalog

STARLINK-35572

NORAD 66117 · 2025-237D

PAYLOAD ACTIVE UNKNOWN

§ Identity

Operator
Country
US
Launch date
2025-10-22
Launch site
AFWTR
Launch vehicle
Mass (kg)
RCS (m²)

Purposes: comms

External: N2YO · Heavens-Above · Gunter

§ Orbital elements

Epoch: 2026-09-20T10:34:15.443328Z

Period
93.85 min
Inclination
53.1577°
Eccentricity
0.0001371
Mean motion
15.34425878 rev/d
Perigee alt
461.7 km
Apogee alt
463.6 km
Semi-major
6,840.8 km
B*
3.8890e-4
RAAN
213.9014°
Arg perigee
93.3311°
Mean anomaly
266.7849°
Rev number
5,244

§ Raw data

STARLINK-355721 66117U 25237D   26263.44045652  .00012796  00000+0  38890-3 0  99942 66117  53.1577 213.9014 0001371  93.3311 266.7849 15.34425878 52447

JSON: /api/v1/satellites/66117 · /tle

For live sub-satellite position, see the globe view (requires WebGL).

§ Visibility from observer

Set your observer location to see the next 7 days of passes ≥ 10°. The values pass through the URL so the page stays shareable.

No JS? Fill the form by hand. The geolocation button needs JavaScript.